Weather History for KUCP - April, 2013

Change the Weather History Date:

Monday, April 22, 2013

  Actual Average Record
Temperature  
Mean Temperature 50 °F -  
Max Temperature 62 °F 65 °F 87 °F (1987)
Min Temperature 37 °F 38 °F 22 °F (1981)
Degree Days  
Heating Degree Days 16    
Moisture  
Dew Point 25 °F    
Average Humidity 39    
Maximum Humidity 55    
Minimum Humidity 27    
Precipitation  
Precipitation 0.00 in - - ()
Sea Level Pressure  
Sea Level Pressure 30.41 in    
Wind  
Wind Speed 8 mph (ESE)    
Max Wind Speed 9 mph    
Max Gust Speed 16 mph    
Visibility 10 miles    
Events      
Averages and records for this station are not official NWS values.
T = Trace of Precipitation, MM = Missing Value Source: NWS Daily Summary

Daily Weather History Graph

Daily Weather History Graph

Search for Another Location

Airport or City:

Trip Planner

Search our weather history database for the weather conditions in past years. The results will help you decide how hot, cold, wet, or windy it might be!

Date:

Astronomy

Apr. 22, 2013 Rise Set
Actual Time 6:31 AM EDT 8:09 PM EDT
Civil Twilight 6:02 AM EDT 8:38 PM EDT
Nautical Twilight 5:27 AM EDT 9:13 PM EDT
Astronomical Twilight 4:50 AM EDT 9:51 PM EDT
Moon 4:55 PM EDT (4/22) 4:27 AM EDT (4/22)
Length of Visible Light 14h 35m
Length of Day
13h 37m
Waxing Gibbous, 87% of the Moon is Illuminated
Apr 22
Waxing Gibbous
Apr 25
Full
May 2
Last Quarter
May 9
New
May 18
First Quarter

Hourly Weather History & Observations

Time (EDT) Temp. Windchill Dew Point Humidity Pressure Visibility Wind Dir Wind Speed Gust Speed Precip Events Conditions
12:56 AM 39.9 °F 35.1 °F 22.1 °F 49% 30.54 in 10.0 mi East 6.9 mph - N/A   Clear
1:56 AM 39.2 °F 34.2 °F 21.2 °F 49% 30.46 in 10.0 mi East 6.9 mph - N/A   Clear
2:56 AM 38.8 °F 33.8 °F 22.1 °F 51% 30.51 in 10.0 mi East 6.9 mph - N/A   Clear
3:56 AM 38.8 °F 32.6 °F 22.1 °F 51% 30.50 in 10.0 mi East 9.2 mph - N/A   Clear
4:56 AM 39.2 °F 33.0 °F 21.2 °F 49% 30.42 in 10.0 mi East 9.2 mph - N/A   Clear
5:56 AM 37.9 °F 33.5 °F 23.0 °F 55% 30.49 in 10.0 mi ESE 5.8 mph - N/A   Clear
6:56 AM 37.9 °F 33.5 °F 23.0 °F 55% 30.50 in 10.0 mi ESE 5.8 mph - N/A   Clear
7:56 AM 41.0 °F 39.0 °F 24.8 °F 53% 30.44 in 10.0 mi Variable 3.5 mph - N/A   Clear
8:56 AM 45.0 °F 40.1 °F 25.2 °F 46% 30.50 in 10.0 mi ESE 9.2 mph - N/A   Clear
9:56 AM 50.0 °F - 26.1 °F 39% 30.50 in 10.0 mi SE 8.1 mph - N/A   Clear
10:56 AM 53.6 °F - 28.4 °F 38% 30.43 in 10.0 mi Variable 6.9 mph - N/A   Clear
11:56 AM 54.9 °F - 29.1 °F 37% 30.48 in 10.0 mi SE 9.2 mph - N/A   Clear
12:56 PM 56.8 °F - 29.1 °F 35% 30.44 in 10.0 mi East 9.2 mph 16.1 mph N/A   Clear
1:56 PM 60.8 °F - 30.2 °F 31% 30.36 in 10.0 mi SE 9.2 mph - N/A   Clear
2:56 PM 61.0 °F - 31.1 °F 32% 30.40 in 10.0 mi SE 9.2 mph - N/A   Clear
3:56 PM 61.0 °F - 30.0 °F 31% 30.38 in 10.0 mi SSE 9.2 mph - N/A   Clear
4:56 PM 62.6 °F - 28.4 °F 27% 30.29 in 10.0 mi South 9.2 mph - N/A   Clear
5:56 PM 61.9 °F - 28.0 °F 28% 30.34 in 10.0 mi SSE 6.9 mph - N/A   Clear
6:56 PM 59.9 °F - 26.1 °F 27% 30.33 in 10.0 mi ESE 8.1 mph - N/A   Clear
7:56 PM 57.2 °F - 24.8 °F 29% 30.28 in 10.0 mi ESE 6.9 mph - N/A   Clear
8:56 PM 54.9 °F - 23.0 °F 29% 30.35 in 10.0 mi ESE 6.9 mph - N/A   Clear
9:56 PM 52.9 °F - 22.1 °F 30% 30.35 in 10.0 mi ESE 8.1 mph - N/A   Clear
10:56 PM 51.8 °F - 24.8 °F 35% 30.30 in 10.0 mi ESE 9.2 mph - N/A   Clear
11:56 PM 48.9 °F - 25.2 °F 40% 30.33 in 10.0 mi ESE 9.2 mph - N/A   Clear